#timestamp,LO_Frequency,Hit,StdDev 
1546167615.8,286047002.2,N
1546167635.6,286047002.8,N
1546167655.4,286046998.6,N
1546167675.3,286046999.5,N
1546167695.1,286046997.1,N
1546167715.9,286047000.7,N
1546167735.7,286046998.6,N
1546167755.5,286047001.6,N
1546167775.4,286047002.6,N
1546167795.2,286046999.8,N
1546167815.0,286047001.3,N
1546167815.9,286047001.3,N
1546167835.8,286046999.9,N
1546167855.6,286047001.1,N
1546167875.5,286046999.2,N
1546167895.3,286046999.3,N
1546167915.1,286047002.2,N
1546167935.9,286046998.1,N
1546167955.7,286047000.4,N
1546167975.6,286047000.3,N
1546167995.4,286047001.1,N
1546168015.2,286047002.0,N
1546168035.1,286046998.1,N
1546168036.0,286046998.1,N
1546168055.8,286046999.9,N
1546168075.6,286047001.5,N
1546168095.5,286047001.8,N
1546168115.3,286046999.8,N
1546168135.2,286047002.4,N
1546168155.9,286047001.4,N
1546168175.7,286047002.8,N
1546168195.6,286047001.6,N
1546168215.4,286047001.0,N
1546168235.2,286046998.3,N
1546168255.1,286046996.5,N
1546168256.0,286046996.5,N
1546168275.8,286046997.0,N
1546168295.7,286046996.6,N
1546168315.5,286046998.8,N
1546168335.3,286046996.5,N
1546168355.2,286046997.7,N
1546168375.0,286046997.0,N
1546168375.9,286046997.0,N
1546168395.8,286046999.0,N
1546168415.6,286046998.6,N
1546168465.5,286046998.9,E
1546168475.4,286046999.3,N
1546168495.2,286046998.8,P
1546168515.1,286047000.1,N
1546168516.0,286047000.1,N
1546168535.8,286047001.3,N
1546168555.6,286047000.3,N
1546168575.5,286047000.6,N
1546168595.3,286046998.2,N
1546168615.2,286046996.8,Y
1546168635.9,286046996.6,P
1546168655.7,286047000.8,N
1546168675.6,286046998.5,N
1546168695.4,286047000.2,N
1546168715.2,286046999.9,N
1546168735.1,286047000.3,N
1546168736.0,286047000.3,N
1546168755.8,286046996.8,N
1546168775.7,286046998.9,N
1546168795.5,286047001.9,N
1546168815.3,286047000.3,N
1546168835.2,286046998.7,N
1546168855.0,286046996.8,N
1546168855.9,286046996.8,N
1546168875.8,286046994.9,Y
1546168895.6,286046997.9,P
1546168915.4,286046996.2,P
1546168935.3,286046993.0,P
1546168955.1,286046991.5,Y
1546168975.8,286046994.7,P
1546168995.7,286046995.6,P
1546169015.5,286047011.9,P
1546169035.4,286046992.4,N
1546169055.2,286046993.0,N
1546169075.0,286046993.4,N
1546169075.9,286046993.4,N
1546169095.8,286046993.4,N
1546169115.6,286046994.7,N
1546169135.4,286046993.5,N
1546169155.3,286046993.4,N
1546169175.1,286046994.0,N
1546169195.9,286046994.6,N
1546169215.7,286046992.6,N
1546169235.5,286046992.0,N
1546169255.4,286046995.7,N
1546169275.2,286046995.1,N
1546169295.0,286046994.1,N
1546169296.0,286046994.1,N
1546169315.8,286046994.0,N
1546169335.6,286046994.5,N
1546169355.5,286046992.4,N
1546169375.3,286046994.4,N
1546169395.1,286046994.1,N
1546169415.9,286046996.1,N
1546169435.7,286046996.2,N
1546169455.5,286046994.0,N
1546169475.4,286046994.7,N
1546169495.2,286046995.9,N
1546169515.1,286046993.5,N
1546169516.0,286046993.5,N
1546169535.8,286046996.4,N
1546169555.7,286046994.7,N
1546169575.5,286046996.1,Y
1546169595.3,286047000.0,P
1546169615.2,286047002.1,N
1546169635.0,286047003.5,N
1546169635.9,286047003.5,N
1546169655.7,286047002.1,N
1546169675.6,286047000.3,N
1546169695.4,286046998.5,N
1546169715.3,286047000.8,N
1546169735.1,286047002.3,N
1546169736.0,286047002.3,N
1546169755.8,286046999.7,N
1546169775.7,286047000.6,N
1546169795.5,286047001.0,N
1546169815.3,286046998.9,N
1546169835.2,286046998.7,N
1546169855.0,286046998.3,N
1546169855.9,286046998.3,N
1546169875.8,286046998.7,N
1546169895.6,286046998.9,N
1546169915.4,286047001.6,N
1546169935.3,286047000.2,N
1546169955.1,286047004.4,N
1546169975.9,286047001.7,N
1546169995.7,286047003.6,N
1546170015.5,286047003.8,N
1546170035.4,286047005.9,N
1546170055.2,286047002.5,N
1546170075.0,286047002.6,N
1546170075.9,286047002.6,N
1546170095.8,286047001.9,N
1546170115.6,286047001.5,N
1546170135.5,286047003.6,N
1546170155.3,286047000.4,N
1546170175.1,286047001.1,N
1546170195.9,286046996.7,N
1546170215.7,286046998.8,N
1546170235.5,286046999.1,N
1546170255.4,286046998.3,N
1546170275.2,286047000.0,N
1546170295.1,286047000.1,N
1546170296.0,286047000.1,N
1546170315.8,286047000.4,N
1546170335.6,286047000.4,N
1546170355.5,286047000.0,N
1546170375.3,286047006.0,N
1546170395.1,286047003.5,N
1546170415.9,286047002.1,N
1546170435.7,286047003.6,N
1546170455.6,286047003.4,N
1546170475.4,286047003.9,N
1546170495.2,286047003.8,N
1546170515.1,286047005.6,N
1546170516.0,286047005.6,N
1546170535.8,286047005.9,N
1546170555.7,286047005.8,N
1546170575.5,286047006.9,N
1546170595.3,286047007.2,N
1546170615.2,286047003.3,N
1546170635.9,286047005.0,N
1546170655.7,286047007.5,N
1546170675.6,286047005.3,N
1546170695.4,286047005.0,N
1546170715.3,286047006.9,N
1546170735.1,286047008.5,N
1546170736.0,286047008.5,N
1546170755.8,286047007.2,N
1546170775.7,286047007.0,N
1546170795.5,286047007.3,N
1546170815.3,286047007.3,N
1546170835.2,286047012.4,Y
1546170855.0,286047004.6,P
1546170855.9,286047004.6,P
1546170875.8,286047003.6,P
1546170895.6,286047005.5,Y
1546170915.4,286047001.0,P
1546170935.3,286046999.0,N
1546170955.1,286047000.5,N
1546170975.9,286046999.0,N
1546170995.7,286047003.6,N
1546171015.5,286047002.2,N
1546171035.4,286046998.2,N
1546171055.2,286047001.9,N
1546171075.0,286047004.8,N
1546171075.9,286047004.8,N
1546171095.8,286047001.4,N
1546171115.6,286047000.5,N
1546171135.5,286046999.7,N
1546171155.3,286047005.1,N
1546171175.1,286047004.0,N
1546171195.9,286047000.2,N
